Tracking 22458 objects as of 2-Mar-2021
HD Live streaming from Space Station
objects crossing your sky now

SL-12 R/B(2)

Track SL-12 R/B(2) now!


NORAD ID: 14086
Int'l Code: 1983-016F
Perigee: 35,513.1 km
Apogee: 35,613.9 km
Inclination: 10.9 °
Period: 1,424.3 minutes
Semi major axis: 41934 km
RCS: 1.9413 m2 (large)
Launch date: March 12, 1983
Source: Commonwealth of Independent States (former USSR) (CIS)
Launch site: TYURATAM MISSILE AND SPACE COMPLEX (TTMTR)

Note: This is a ROCKET BODY
aabbcc
Your satellite tracking list
Your tracking list is empty




NASA's NSSDC Master Catalog

Two Line Element Set (TLE):
1 14086U 83016F   21060.09220140 -.00000227  00000-0  00000-0 0  9996
2 14086  10.8547 315.2997 0012021 279.6595 265.6114  1.01098858103415
Source of the keplerian elements: AFSPC